AMV430 EHAM-EGKK

Flight info

Callsign AMV430
Flight time 0h 41m
Altitude 24000
Route IDRID L980 ABNED Z344 AMRIV Q63 ARREK Y4 TEBRA
Aircraft A320/M-SDE3FGHIRWY/LB1

Departure

Time 2026-04-17 11:56
Airport Amsterdam Airport Schiphol (EHAM)

Arrival

Time 2026-04-17 12:37
Airport London Gatwick Airport (EGKK)
Time Latitude Longitude Altitude Speed Heading
2026-04-17 11:24 52.31066 4.75572 -1 ft 0 kts 148°
2026-04-17 11:29 52.31067 4.75572 -1 ft 0 kts 148°
2026-04-17 11:45 52.31085 4.75554 -1 ft 4 kts 151°
2026-04-17 11:45 52.31106 4.75532 -1 ft 4 kts 119°
2026-04-17 11:45 52.31107 4.75510 -1 ft 4 kts 64°
2026-04-17 11:45 52.31093 4.75474 -1 ft 2 kts 57°
2026-04-17 11:46 52.31092 4.75471 -1 ft 0 kts 58°
2026-04-17 11:48 52.31105 4.75478 -1 ft 4 kts
2026-04-17 11:48 52.31169 4.75466 -1 ft 14 kts 355°
2026-04-17 11:48 52.31283 4.75454 -1 ft 17 kts 356°
2026-04-17 11:49 52.31396 4.75449 -1 ft 15 kts 10°
2026-04-17 11:49 52.31431 4.75585 -1 ft 13 kts 85°
2026-04-17 11:49 52.31437 4.75746 -1 ft 16 kts 87°
2026-04-17 11:49 52.31443 4.75935 -1 ft 18 kts 88°
2026-04-17 11:50 52.31452 4.76145 -1 ft 18 kts 86°
2026-04-17 11:50 52.31459 4.76348 -1 ft 18 kts 86°
2026-04-17 11:50 52.31466 4.76556 -1 ft 18 kts 85°
2026-04-17 11:50 52.31473 4.76758 -1 ft 17 kts 87°
2026-04-17 11:51 52.31480 4.76950 -1 ft 16 kts 86°
2026-04-17 11:51 52.31476 4.77132 -1 ft 17 kts 105°
2026-04-17 11:51 52.31460 4.77182 -1 ft 3 kts 121°
2026-04-17 11:51 52.31432 4.77245 -1 ft 8 kts 129°
2026-04-17 11:52 52.31397 4.77311 -1 ft 7 kts 131°
2026-04-17 11:52 52.31365 4.77368 -1 ft 8 kts 133°
2026-04-17 11:52 52.31315 4.77461 -1 ft 15 kts 139°
2026-04-17 11:52 52.31198 4.77500 -1 ft 19 kts 183°
2026-04-17 11:53 52.31063 4.77488 -1 ft 21 kts 184°
2026-04-17 11:53 52.30915 4.77476 -1 ft 22 kts 182°
2026-04-17 11:53 52.30760 4.77461 -1 ft 23 kts 183°
2026-04-17 11:53 52.30604 4.77513 -1 ft 24 kts 152°
2026-04-17 11:54 52.30460 4.77637 -1 ft 15 kts 149°
2026-04-17 11:54 52.30421 4.77654 -1 ft 0 kts 204°
2026-04-17 11:54 52.30419 4.77648 -1 ft 3 kts 233°
2026-04-17 11:54 52.30414 4.77635 -1 ft 1 kts 236°
2026-04-17 11:55 52.30371 4.77525 -2 ft 39 kts 237°
2026-04-17 11:55 52.30091 4.76799 -1 ft 108 kts 238°
2026-04-17 11:55 52.29591 4.75498 1 ft 159 kts 236°
2026-04-17 11:55 52.28981 4.73901 483 ft 170 kts 237°
2026-04-17 11:56 52.28349 4.72241 1267 ft 173 kts 236°
2026-04-17 11:56 52.27661 4.70471 1801 ft 195 kts 233°
2026-04-17 11:56 52.26696 4.68742 2285 ft 218 kts 223°
2026-04-17 11:56 52.25553 4.66926 2879 ft 239 kts 223°
2026-04-17 11:57 52.24417 4.64886 3778 ft 248 kts 237°
2026-04-17 11:57 52.23780 4.62231 4743 ft 254 kts 249°
2026-04-17 11:57 52.23214 4.59479 5715 ft 257 kts 248°
2026-04-17 11:57 52.22631 4.56694 6662 ft 261 kts 248°
2026-04-17 11:58 52.22035 4.53873 7556 ft 264 kts 248°
2026-04-17 11:58 52.21637 4.51987 8156 ft 266 kts 249°
2026-04-17 11:58 52.21032 4.49116 9096 ft 269 kts 249°
2026-04-17 11:58 52.20423 4.46222 10043 ft 271 kts 249°
2026-04-17 11:59 52.19584 4.42244 10717 ft 293 kts 249°
2026-04-17 11:59 52.19122 4.40056 10907 ft 310 kts 249°
2026-04-17 11:59 52.18395 4.36615 11156 ft 332 kts 250°
2026-04-17 11:59 52.17634 4.33004 11728 ft 341 kts 250°
2026-04-17 12:00 52.16868 4.29376 12448 ft 345 kts 250°
2026-04-17 12:00 52.16079 4.25647 13208 ft 348 kts 250°
2026-04-17 12:00 52.15284 4.21898 13976 ft 352 kts 250°
2026-04-17 12:00 52.14475 4.18106 14642 ft 355 kts 250°
2026-04-17 12:01 52.13658 4.14290 15299 ft 358 kts 250°
2026-04-17 12:01 52.12834 4.10447 15942 ft 361 kts 250°
2026-04-17 12:01 52.12013 4.06618 16574 ft 364 kts 250°
2026-04-17 12:01 52.11170 4.02684 17207 ft 367 kts 250°
2026-04-17 12:02 52.10321 3.98735 17826 ft 370 kts 250°
2026-04-17 12:02 52.09468 3.94771 18431 ft 373 kts 250°
2026-04-17 12:02 52.08602 3.90769 18969 ft 376 kts 250°
2026-04-17 12:02 52.07737 3.86779 19484 ft 379 kts 250°
2026-04-17 12:03 52.06851 3.82703 20009 ft 381 kts 250°
2026-04-17 12:03 52.05965 3.78629 20538 ft 384 kts 250°
2026-04-17 12:03 52.05073 3.74522 21062 ft 386 kts 250°
2026-04-17 12:03 52.04174 3.70394 21576 ft 388 kts 250°
2026-04-17 12:04 52.03282 3.66302 22082 ft 390 kts 250°
2026-04-17 12:04 52.02373 3.62144 22587 ft 392 kts 250°
2026-04-17 12:04 52.01451 3.57943 23076 ft 394 kts 250°
2026-04-17 12:04 52.00526 3.53750 23558 ft 396 kts 250°
2026-04-17 12:05 51.99433 3.49634 23976 ft 398 kts 242°
2026-04-17 12:05 51.97933 3.45847 24162 ft 400 kts 235°
2026-04-17 12:05 51.96274 3.42168 24211 ft 409 kts 234°
2026-04-17 12:05 51.94570 3.38406 24225 ft 416 kts 234°
2026-04-17 12:06 51.92852 3.34622 24216 ft 417 kts 234°
2026-04-17 12:06 51.91128 3.30829 24217 ft 418 kts 234°
2026-04-17 12:06 51.89427 3.27082 24215 ft 418 kts 234°
2026-04-17 12:06 51.87683 3.23246 24217 ft 418 kts 234°
2026-04-17 12:07 51.85982 3.19515 24212 ft 418 kts 234°
2026-04-17 12:07 51.84404 3.15555 24215 ft 417 kts 242°
2026-04-17 12:07 51.83083 3.11362 24214 ft 417 kts 243°
2026-04-17 12:07 51.81766 3.07175 24217 ft 417 kts 243°
2026-04-17 12:08 51.80463 3.03043 24217 ft 417 kts 243°
2026-04-17 12:08 51.79137 2.98856 24222 ft 417 kts 243°
2026-04-17 12:08 51.77814 2.94689 24213 ft 417 kts 243°
2026-04-17 12:08 51.76487 2.90511 24205 ft 417 kts 243°
2026-04-17 12:09 51.75155 2.86334 24209 ft 416 kts 243°
2026-04-17 12:09 51.73826 2.82181 24209 ft 416 kts 243°
2026-04-17 12:09 51.72496 2.78028 24204 ft 416 kts 243°
2026-04-17 12:09 51.71183 2.73929 24209 ft 416 kts 243°
2026-04-17 12:10 51.69870 2.69767 24209 ft 416 kts 245°
2026-04-17 12:10 51.68876 2.65391 24207 ft 417 kts 254°
2026-04-17 12:10 51.68330 2.60792 24210 ft 418 kts 260°
2026-04-17 12:10 51.67920 2.56152 24209 ft 418 kts 260°
2026-04-17 12:11 51.67510 2.51562 24206 ft 418 kts 260°
2026-04-17 12:11 51.67093 2.46919 24205 ft 418 kts 260°
2026-04-17 12:11 51.66672 2.42266 24198 ft 418 kts 260°
2026-04-17 12:12 51.65820 2.33034 24204 ft 418 kts 259°
2026-04-17 12:12 51.65387 2.28384 24202 ft 418 kts 259°
2026-04-17 12:12 51.64954 2.23730 24201 ft 418 kts 259°
2026-04-17 12:12 51.64525 2.19148 24199 ft 418 kts 259°
2026-04-17 12:13 51.64087 2.14506 24199 ft 418 kts 259°
2026-04-17 12:13 51.63646 2.09854 24195 ft 418 kts 259°
2026-04-17 12:13 51.63213 2.05211 24198 ft 418 kts 259°
2026-04-17 12:13 51.62789 2.00629 24197 ft 418 kts 259°
2026-04-17 12:14 51.62358 1.95983 24198 ft 418 kts 259°
2026-04-17 12:14 51.61935 1.91413 24181 ft 405 kts 259°
2026-04-17 12:14 51.61353 1.87062 23230 ft 403 kts 251°
2026-04-17 12:14 51.60260 1.82853 21896 ft 411 kts 240°
2026-04-17 12:15 51.58674 1.79035 21159 ft 407 kts 231°
2026-04-17 12:15 51.56836 1.75573 20439 ft 403 kts 229°
2026-04-17 12:15 51.55018 1.72235 19743 ft 399 kts 229°
2026-04-17 12:15 51.53183 1.68912 19070 ft 396 kts 229°
2026-04-17 12:16 51.51353 1.65611 18414 ft 393 kts 229°
2026-04-17 12:16 51.49628 1.62245 17662 ft 389 kts 235°
2026-04-17 12:16 51.48300 1.58460 16933 ft 387 kts 245°
2026-04-17 12:16 51.47344 1.54436 16221 ft 384 kts 249°
2026-04-17 12:17 51.46428 1.50423 15515 ft 382 kts 249°
2026-04-17 12:17 51.45511 1.46439 14828 ft 379 kts 249°
2026-04-17 12:17 51.44586 1.42498 14177 ft 376 kts 246°
2026-04-17 12:17 51.43370 1.38871 13460 ft 372 kts 236°
2026-04-17 12:18 51.41729 1.35690 12723 ft 369 kts 225°
2026-04-17 12:18 51.39752 1.33069 11996 ft 366 kts 218°
2026-04-17 12:18 51.37701 1.30651 11299 ft 364 kts 218°
2026-04-17 12:18 51.35689 1.28282 10617 ft 361 kts 218°
2026-04-17 12:19 51.33662 1.25896 9920 ft 359 kts 218°
2026-04-17 12:19 51.31652 1.23531 9182 ft 357 kts 218°
2026-04-17 12:19 51.29685 1.21215 8463 ft 354 kts 218°
2026-04-17 12:19 51.27706 1.18887 7747 ft 351 kts 218°
2026-04-17 12:20 51.25754 1.16591 7320 ft 340 kts 218°
2026-04-17 12:20 51.23903 1.14415 7188 ft 321 kts 218°
2026-04-17 12:20 51.22157 1.12368 7203 ft 300 kts 218°
2026-04-17 12:20 51.20528 1.10459 7207 ft 281 kts 218°
2026-04-17 12:21 51.19000 1.08669 7205 ft 264 kts 218°
2026-04-17 12:21 51.17582 1.07011 7208 ft 247 kts 218°
2026-04-17 12:21 51.16239 1.05442 7209 ft 231 kts 218°
2026-04-17 12:21 51.14985 1.03972 7210 ft 217 kts 218°
2026-04-17 12:22 51.13773 1.02553 7218 ft 216 kts 218°
2026-04-17 12:22 51.12557 1.01125 7218 ft 217 kts 218°
2026-04-17 12:22 51.11361 0.99722 7218 ft 216 kts 218°
2026-04-17 12:22 51.10147 0.98303 7219 ft 217 kts 218°
2026-04-17 12:23 51.08926 0.96878 7218 ft 218 kts 218°
2026-04-17 12:23 51.07709 0.95456 7219 ft 216 kts 218°
2026-04-17 12:23 51.06522 0.93976 7224 ft 216 kts 225°
2026-04-17 12:23 51.05594 0.92155 7166 ft 213 kts 244°
2026-04-17 12:24 51.05241 0.89866 7149 ft 213 kts 270°
2026-04-17 12:24 51.05486 0.87549 7126 ft 217 kts 279°
2026-04-17 12:24 51.05810 0.85193 7098 ft 217 kts 280°
2026-04-17 12:24 51.06141 0.82818 6693 ft 225 kts 280°
2026-04-17 12:25 51.06484 0.80350 6187 ft 230 kts 280°
2026-04-17 12:25 51.06826 0.77897 5834 ft 228 kts 280°
2026-04-17 12:25 51.07166 0.75455 5548 ft 224 kts 279°
2026-04-17 12:25 51.07498 0.73064 5263 ft 220 kts 279°
2026-04-17 12:26 51.07823 0.70703 4989 ft 216 kts 279°
2026-04-17 12:26 51.08142 0.68385 4711 ft 212 kts 279°
2026-04-17 12:26 51.08451 0.66137 4420 ft 210 kts 279°
2026-04-17 12:26 51.08761 0.63874 4145 ft 209 kts 279°
2026-04-17 12:27 51.09068 0.61615 3862 ft 208 kts 278°
2026-04-17 12:27 51.09373 0.59366 3584 ft 207 kts 278°
2026-04-17 12:27 51.09676 0.57138 3401 ft 205 kts 278°
2026-04-17 12:27 51.09976 0.54924 3297 ft 205 kts 278°
2026-04-17 12:28 51.10274 0.52715 3209 ft 204 kts 278°
2026-04-17 12:28 51.10577 0.50497 3116 ft 205 kts 278°
2026-04-17 12:28 51.10892 0.48164 3050 ft 233 kts 278°
2026-04-17 12:28 51.11238 0.45586 2985 ft 244 kts 278°
2026-04-17 12:29 51.11596 0.42945 2904 ft 245 kts 278°
2026-04-17 12:29 51.11959 0.40286 2825 ft 245 kts 278°
2026-04-17 12:29 51.12312 0.37704 2741 ft 231 kts 278°
2026-04-17 12:29 51.12641 0.35304 2661 ft 211 kts 278°
2026-04-17 12:30 51.12939 0.33118 2580 ft 194 kts 277°
2026-04-17 12:30 51.13214 0.31083 2502 ft 182 kts 277°
2026-04-17 12:30 51.13477 0.29108 2444 ft 185 kts 277°
2026-04-17 12:30 51.13740 0.27105 2380 ft 185 kts 277°
2026-04-17 12:31 51.14002 0.25124 2326 ft 184 kts 277°
2026-04-17 12:31 51.14266 0.23121 2261 ft 184 kts 277°
2026-04-17 12:31 51.14526 0.21167 2214 ft 174 kts 276°
2026-04-17 12:31 51.14775 0.19289 2174 ft 174 kts 276°
2026-04-17 12:32 51.15024 0.17391 2119 ft 175 kts 276°
2026-04-17 12:32 51.15270 0.15529 2058 ft 172 kts 276°
2026-04-17 12:32 51.15518 0.13659 1996 ft 173 kts 276°
2026-04-17 12:32 51.15762 0.11796 1932 ft 171 kts 276°
2026-04-17 12:33 51.16005 0.09924 1868 ft 174 kts 276°
2026-04-17 12:33 51.16252 0.08032 1810 ft 175 kts 276°
2026-04-17 12:33 51.16502 0.06135 1803 ft 175 kts 277°
2026-04-17 12:33 51.16754 0.04231 1816 ft 177 kts 277°
2026-04-17 12:34 51.17007 0.02302 1837 ft 178 kts 276°
2026-04-17 12:34 51.17253 0.00367 1855 ft 178 kts 273°
2026-04-17 12:34 51.17203 -0.01557 2026 ft 171 kts 254°
2026-04-17 12:34 51.16946 -0.03428 1923 ft 173 kts 253°
2026-04-17 12:35 51.16695 -0.05277 1737 ft 164 kts 254°
2026-04-17 12:35 51.16466 -0.06971 1525 ft 149 kts 253°
2026-04-17 12:35 51.16256 -0.08511 1334 ft 139 kts 253°
2026-04-17 12:35 51.16052 -0.09999 1152 ft 137 kts 253°
2026-04-17 12:37 51.14786 -0.19240 208 ft 35 kts 258°
2026-04-17 12:37 51.14754 -0.19586 214 ft 26 kts 277°
2026-04-17 12:38 51.14792 -0.19879 210 ft 21 kts 282°
2026-04-17 12:38 51.14811 -0.19998 208 ft 10 kts 290°
2026-04-17 12:38 51.14861 -0.20009 212 ft 7 kts 45°
2026-04-17 12:38 51.14873 -0.19946 213 ft 5 kts 78°
2026-04-17 12:39 51.14880 -0.19900 206 ft 3 kts 78°
2026-04-17 12:39 51.14883 -0.19875 215 ft 1 kts 78°
2026-04-17 12:39 51.14883 -0.19871 214 ft 0 kts 78°
2026-04-17 12:39 51.14887 -0.19843 216 ft 8 kts 78°
2026-04-17 12:40 51.14909 -0.19682 210 ft 19 kts 78°
2026-04-17 12:40 51.14936 -0.19480 207 ft 18 kts 78°
2026-04-17 12:40 51.14960 -0.19297 212 ft 16 kts 78°
2026-04-17 12:40 51.14983 -0.19127 207 ft 16 kts 77°
2026-04-17 12:41 51.15011 -0.18929 207 ft 20 kts 77°
2026-04-17 12:41 51.15039 -0.18718 207 ft 19 kts 78°
2026-04-17 12:41 51.15066 -0.18519 204 ft 17 kts 78°
2026-04-17 12:41 51.15091 -0.18338 211 ft 16 kts 74°
2026-04-17 12:42 51.15111 -0.18216 207 ft 9 kts 75°
2026-04-17 12:42 51.15122 -0.18154 212 ft 8 kts 75°
2026-04-17 12:42 51.15148 -0.18087 213 ft 7 kts 34°
2026-04-17 12:42 51.15203 -0.18079 205 ft 6 kts 348°
2026-04-17 12:43 51.15228 -0.18087 205 ft 5 kts 348°
2026-04-17 12:43 51.15258 -0.18101 208 ft 4 kts 342°
2026-04-17 12:43 51.15311 -0.18122 208 ft 12 kts 348°
2026-04-17 12:43 51.15425 -0.18153 205 ft 14 kts
2026-04-17 12:44 51.15467 -0.18032 210 ft 13 kts 77°
2026-04-17 12:44 51.15485 -0.17902 205 ft 12 kts 77°
2026-04-17 12:44 51.15502 -0.17780 205 ft 11 kts 77°
2026-04-17 12:44 51.15519 -0.17741 210 ft 1 kts 347°
2026-04-17 12:45 51.15537 -0.17748 210 ft 3 kts 347°
2026-04-17 12:45 51.15554 -0.17754 209 ft 2 kts 347°
2026-04-17 12:45 51.15564 -0.17758 205 ft 1 kts 347°
2026-04-17 12:45 51.15572 -0.17761 205 ft 0 kts 347°